map of MNI home
Great Circle Mapper logo
MNI - Airport
Location
City:  Gerald's Park, Montserrat
Name:Gerald's Airport
ICAO / IATA:TRPG / MNI

Details
Type:Airport (Aerodrome, Airfield)
Latitude:1647'29"N (16.791389)
Longitude:6211'36"W (-62.193332)
Elevation:551 ft (168 m)
Variation:14.5W (WMM2010 magnetic declination)
Runways:1
Longest:1814 × 59 ft (553 × 18 m)

Time
Time Zone:UTC-4
Local Time:

Weather
METAR:TRPG 262200Z 10017KT 9999 HZ BKN024 26/21 Q1014
TAF:TRPG 262200Z 2700/2724 09013KT 9999 SHRA SCT018 PROB40
TEMPO 2700/2706 09014G24KT 5000 SHRA BKN015 PROB40
TEMPO 2718/2724 SHRA FEW014CB

Related Locations
Nearby:
Farthest:PHE: 12178 mi / 19599 km
Port Hedland, WA, AU

Find:

   beyond  
but within

Other Information
Maps:
NOTAMs:
Links:
Sources:

  
flag of Montserrat   

Sectional Chart

Flight Planning
at skyvector.com

Satellite Image

Google Maps Satellite View

 

Copyright © 2004-2014 Karl L. Swartz. All rights reserved.
The Great Circle Mapper name and logo are trademarks of the Great Circle Mapper.
All other trademarks mentioned herein belong to their respective owners.
Please see credits for attibutions and further copyright information.

  Follow gcmap on Facebook Follow gcmap on Twitter

hCard Microformat

Geo Microformat